Weather History for Omaha Millard, NE

Change the Weather History Date:

Wednesday, May 8, 2013

  Actual Average (KOMA) Record (KOMA)
Temperature  
Mean Temperature 62 °F 60 °F  
Max Temperature 68 °F 71 °F 95 °F (1934)
Min Temperature 56 °F 48 °F 31 °F (1980)
Degree Days  
Heating Degree Days 3 6  
Month to date heating degree days 58  
Since 1 July heating degree days 6060  
Cooling Degree Days 0 1  
Month to date cooling degree days 8  
Year to date cooling degree days 24  
Growing Degree Days 12 (Base 50)    
Moisture  
Dew Point 57 °F    
Average Humidity 82    
Maximum Humidity 97    
Minimum Humidity 68    
Precipitation  
Precipitation 0.06 in 0.16 in 2.98 in (1883)
Month to date precipitation 1.10  
Year to date precipitation 7.62  
Snow  
Snow 0.00 in 0.00 in - ()
Month to date snowfall 0.1  
Since 1 July snowfall 26.5  
Snow Depth -    
Sea Level Pressure  
Sea Level Pressure 29.94 in    
Wind  
Wind Speed 2 mph (SE)    
Max Wind Speed 9 mph    
Max Gust Speed -    
Visibility 10 miles    
Events Rain , Thunderstorm    
T = Trace of Precipitation, MM = Missing Value Source: NWS Daily Summary

Daily Weather History Graph

Daily Weather History Graph

Search for Another Location

Airport:

Trip Planner

Search our weather history database for the weather conditions in past years. The results will help you decide how hot, cold, wet, or windy it might be!

Date:

Astronomy

May. 08, 2013 Rise Set
Actual Time 6:13 AM CDT 8:29 PM CDT
Civil Twilight 5:42 AM CDT 9:00 PM CDT
Nautical Twilight 5:04 AM CDT 9:38 PM CDT
Astronomical Twilight 4:23 AM CDT 10:19 PM CDT
Moon 5:22 AM CDT (5/8) 7:28 PM CDT (5/8)
Length of Visible Light 15h 17m
Length of Day
14h 16m
Waning Crescent, 2% of the Moon is Illuminated
May 8
Waning Crescent
May 9
New
May 17
First Quarter
May 24
Full
May 31
Last Quarter

Hourly Weather History & Observations

Time (CDT) Temp. Dew Point Humidity Pressure Visibility Wind Dir Wind Speed Gust Speed Precip Events Conditions
12:15 AM 60.1 °F 58.3 °F 94% 29.96 in 5.0 mi Calm Calm - 0.01 in Rain Light Rain
12:35 AM 60.1 °F 58.6 °F 95% 29.96 in 4.0 mi Calm Calm - 0.04 in Rain Light Rain
12:55 AM 60.6 °F 58.6 °F 93% 29.96 in 7.0 mi Calm Calm - 0.04 in   Overcast
1:15 AM 60.6 °F 58.1 °F 91% 29.95 in 10.0 mi Calm Calm - N/A   Overcast
1:35 AM 60.1 °F 57.6 °F 91% 29.95 in 10.0 mi SE 3.5 mph - 0.01 in   Scattered Clouds
1:55 AM 59.9 °F 56.5 °F 88% 29.94 in 10.0 mi SE 3.5 mph - 0.01 in   Scattered Clouds
2:15 AM 60.1 °F 55.9 °F 86% 29.94 in 10.0 mi SE 3.5 mph - N/A   Mostly Cloudy
2:35 AM 60.3 °F 55.0 °F 83% 29.94 in 10.0 mi ESE 4.6 mph - N/A   Overcast
2:55 AM 60.1 °F 54.9 °F 83% 29.93 in 10.0 mi ESE 4.6 mph - N/A   Scattered Clouds
3:15 AM 58.5 °F 54.1 °F 86% 29.93 in 10.0 mi ESE 3.5 mph - N/A   Clear
3:35 AM 57.2 °F 54.0 °F 89% 29.93 in 10.0 mi Calm Calm - N/A   Clear
3:55 AM 57.4 °F 54.5 °F 90% 29.93 in 10.0 mi Calm Calm - N/A   Scattered Clouds
4:15 AM 57.6 °F 54.1 °F 88% 29.92 in 10.0 mi Calm Calm - N/A   Mostly Cloudy
4:35 AM 56.5 °F 54.7 °F 94% 29.93 in 10.0 mi Calm Calm - N/A   Overcast
4:55 AM 56.8 °F 55.0 °F 94% 29.93 in 10.0 mi Calm Calm - N/A   Overcast
5:15 AM 56.8 °F 55.4 °F 95% 29.94 in 10.0 mi Calm Calm - N/A Rain Rain
5:35 AM 56.8 °F 55.4 °F 95% 29.94 in 7.0 mi Calm Calm - N/A Rain Light Rain
5:55 AM 56.5 °F 55.4 °F 96% 29.94 in 7.0 mi Calm Calm - N/A Rain Light Rain
6:15 AM 56.3 °F 55.4 °F 97% 29.95 in 7.0 mi Calm Calm - N/A   Light Drizzle
6:35 AM 56.1 °F 55.0 °F 96% 29.95 in 5.0 mi Calm Calm - N/A   Light Drizzle
6:55 AM 56.3 °F 55.4 °F 97% 29.96 in 7.0 mi Calm Calm - N/A Rain Light Rain
7:15 AM 56.8 °F 55.9 °F 97% 29.96 in 5.0 mi Calm Calm - 0.01 in Rain Light Rain
7:35 AM 57.7 °F 55.9 °F 94% 29.96 in 10.0 mi ESE 4.6 mph - 0.01 in   Light Drizzle
7:55 AM 59.0 °F 55.4 °F 88% 29.96 in 10.0 mi ESE 6.9 mph - 0.01 in   Mostly Cloudy
8:15 AM 59.0 °F 55.6 °F 88% 29.96 in 10.0 mi SE 6.9 mph - N/A   Overcast
8:35 AM 59.0 °F 55.9 °F 90% 29.96 in 10.0 mi ESE 4.6 mph - N/A   Mostly Cloudy
8:55 AM 59.9 °F 56.3 °F 88% 29.96 in 10.0 mi SE 5.8 mph - N/A   Overcast
9:15 AM 60.1 °F 56.3 °F 87% 29.96 in 10.0 mi SSE 4.6 mph - N/A   Overcast
9:35 AM 61.3 °F 57.7 °F 88% 29.96 in 10.0 mi SE 3.5 mph - N/A   Overcast
9:55 AM 63.7 °F 58.3 °F 83% 29.95 in 10.0 mi South 3.5 mph - N/A   Scattered Clouds
10:15 AM 64.0 °F 57.7 °F 80% 29.95 in 10.0 mi South 8.1 mph - N/A   Mostly Cloudy
10:35 AM 63.9 °F 57.0 °F 78% 29.96 in 10.0 mi SSW 5.8 mph - N/A   Overcast
10:55 AM 64.0 °F 56.7 °F 77% 29.96 in 10.0 mi SW 4.6 mph - N/A   Overcast
11:15 AM 65.1 °F 56.7 °F 74% 29.96 in 10.0 mi SW 9.2 mph - N/A   Overcast
11:35 AM 65.3 °F 57.0 °F 75% 29.97 in 10.0 mi SW 9.2 mph - N/A   Overcast
11:55 AM 64.8 °F 57.4 °F 77% 29.97 in 10.0 mi SW 4.6 mph - N/A   Overcast
12:15 PM 65.3 °F 57.4 °F 76% 29.97 in 10.0 mi WSW 5.8 mph - N/A   Overcast
12:35 PM 65.5 °F 57.4 °F 75% 29.96 in 10.0 mi SW 3.5 mph - N/A   Overcast
12:55 PM 66.4 °F 57.7 °F 74% 29.96 in 10.0 mi SSW 4.6 mph - N/A   Mostly Cloudy
1:15 PM 66.2 °F 57.7 °F 74% 29.96 in 10.0 mi SE 4.6 mph - N/A   Overcast
1:35 PM 66.4 °F 57.6 °F 73% 29.96 in 10.0 mi SSE 3.5 mph - N/A Rain Light Rain
1:55 PM 65.8 °F 57.4 °F 74% 29.96 in 10.0 mi South 4.6 mph - N/A   Overcast
2:15 PM 65.5 °F 57.7 °F 76% 29.96 in 10.0 mi South 5.8 mph - N/A   Overcast
2:35 PM 65.3 °F 57.4 °F 76% 29.96 in 10.0 mi South 6.9 mph - N/A   Overcast
2:55 PM 65.8 °F 57.7 °F 75% 29.96 in 10.0 mi South 5.8 mph - N/A   Overcast
3:35 PM 67.6 °F 58.3 °F 72% 29.95 in 10.0 mi Calm Calm - N/A   Overcast
3:55 PM 67.1 °F 57.7 °F 72% 29.94 in 10.0 mi Calm Calm - N/A   Overcast
4:15 PM 67.6 °F 57.6 °F 70% 29.93 in 10.0 mi Calm Calm - N/A   Mostly Cloudy
4:35 PM 67.6 °F 56.8 °F 68% 29.92 in 10.0 mi Calm Calm - N/A   Mostly Cloudy
4:55 PM 68.0 °F 57.4 °F 69% 29.92 in 10.0 mi NE 3.5 mph - N/A   Mostly Cloudy
5:15 PM 67.6 °F 57.0 °F 69% 29.92 in 10.0 mi Calm Calm - N/A   Overcast
5:35 PM 68.0 °F 57.2 °F 68% 29.92 in 10.0 mi Calm Calm - N/A   Overcast
5:55 PM 68.2 °F 57.4 °F 68% 29.92 in 10.0 mi NE 3.5 mph - N/A   Overcast
6:15 PM 67.8 °F 57.4 °F 69% 29.91 in 10.0 mi Calm Calm - N/A   Overcast
6:35 PM 67.8 °F 57.6 °F 70% 29.91 in 10.0 mi NE 3.5 mph - N/A   Overcast
6:55 PM 67.6 °F 57.2 °F 69% 29.91 in 10.0 mi ENE 3.5 mph - N/A   Overcast
7:15 PM 67.3 °F 57.4 °F 70% 29.91 in 10.0 mi NE 3.5 mph - N/A   Overcast
7:35 PM 66.7 °F 57.4 °F 72% 29.91 in 10.0 mi Calm Calm - N/A   Overcast
7:55 PM 66.4 °F 57.4 °F 73% 29.91 in 10.0 mi NNE 4.6 mph - N/A   Overcast
8:15 PM 65.7 °F 57.4 °F 75% 29.90 in 10.0 mi NE 3.5 mph - N/A   Mostly Cloudy
8:35 PM 65.3 °F 57.6 °F 76% 29.91 in 10.0 mi ENE 3.5 mph - N/A   Mostly Cloudy
8:55 PM 65.3 °F 57.7 °F 76% 29.91 in 10.0 mi NE 3.5 mph - N/A   Overcast
9:15 PM 64.8 °F 57.7 °F 78% 29.91 in 10.0 mi Calm Calm - N/A   Overcast
9:35 PM 63.9 °F 57.9 °F 81% 29.90 in 10.0 mi Calm Calm - N/A Thunderstorm Mostly Cloudy
10:15 PM 63.3 °F 58.3 °F 84% 29.91 in 10.0 mi Calm Calm - N/A   Mostly Cloudy
10:35 PM 63.5 °F 58.3 °F 83% 29.91 in 10.0 mi Calm Calm - N/A   Overcast
11:35 PM 62.6 °F 58.1 °F 85% 29.90 in 10.0 mi Calm Calm - N/A Thunderstorm Mostly Cloudy
11:55 PM 63.0 °F 57.4 °F 82% 29.90 in 10.0 mi Calm Calm - N/A   Overcast